HFM2501 YSSY-NZAA

Flight info

Callsign HFM2501
Flight time 2h 30m
Altitude 39000
Route EVONN L521 LUNBI
Aircraft A346/H-SDE2E3FGHIJ3J4J5M1RWXY/LB1D1

Departure

Time 2026-05-07 16:49
Airport Sydney Kingsford Smith International Airport (YSSY)

Arrival

Time 2026-05-07 19:19
Airport Auckland International Airport (NZAA)
Time Latitude Longitude Altitude Speed Heading
2026-05-07 15:31 -33.93400 151.16788 29 ft 0 kts 251°
2026-05-07 16:33 -33.93393 151.16811 27 ft 4 kts 246°
2026-05-07 16:33 -33.93381 151.16838 27 ft 4 kts 236°
2026-05-07 16:33 -33.93364 151.16863 26 ft 4 kts 224°
2026-05-07 16:34 -33.93344 151.16883 27 ft 4 kts 211°
2026-05-07 16:34 -33.93320 151.16897 28 ft 4 kts 201°
2026-05-07 16:34 -33.93309 151.16902 26 ft 0 kts 199°
2026-05-07 16:41 -33.93311 151.16901 29 ft 2 kts 199°
2026-05-07 16:41 -33.93402 151.16898 29 ft 18 kts 173°
2026-05-07 16:41 -33.93501 151.16956 29 ft 10 kts 115°
2026-05-07 16:41 -33.93500 151.17035 29 ft 11 kts 86°
2026-05-07 16:42 -33.93535 151.17108 29 ft 10 kts 156°
2026-05-07 16:42 -33.93599 151.17124 29 ft 11 kts 167°
2026-05-07 16:42 -33.93693 151.17152 28 ft 18 kts 166°
2026-05-07 16:42 -33.93851 151.17197 25 ft 25 kts 167°
2026-05-07 16:43 -33.93957 151.17276 27 ft 16 kts 91°
2026-05-07 16:43 -33.93925 151.17420 29 ft 20 kts 75°
2026-05-07 16:43 -33.93887 151.17593 27 ft 23 kts 75°
2026-05-07 16:43 -33.93839 151.17787 30 ft 25 kts 73°
2026-05-07 16:44 -33.93795 151.17964 37 ft 19 kts 73°
2026-05-07 16:44 -33.93762 151.18105 39 ft 19 kts 75°
2026-05-07 16:44 -33.93726 151.18267 39 ft 21 kts 75°
2026-05-07 16:44 -33.93683 151.18449 39 ft 24 kts 74°
2026-05-07 16:45 -33.93651 151.18581 39 ft 11 kts 74°
2026-05-07 16:45 -33.93626 151.18685 39 ft 14 kts 74°
2026-05-07 16:45 -33.93597 151.18818 39 ft 18 kts 84°
2026-05-07 16:45 -33.93658 151.18948 33 ft 19 kts 154°
2026-05-07 16:46 -33.93730 151.18961 33 ft 11 kts 194°
2026-05-07 16:46 -33.93776 151.18922 34 ft 0 kts 240°
2026-05-07 16:46 -33.93777 151.18922 34 ft 1 kts 241°
2026-05-07 16:46 -33.93788 151.18858 34 ft 10 kts 256°
2026-05-07 16:47 -33.93788 151.18856 34 ft 0 kts 255°
2026-05-07 16:48 -33.93804 151.18787 34 ft 34 kts 255°
2026-05-07 16:48 -33.93927 151.18266 35 ft 97 kts 253°
2026-05-07 16:48 -33.94150 151.17302 31 ft 149 kts 253°
2026-05-07 16:48 -33.94464 151.16013 290 ft 172 kts 255°
2026-05-07 16:49 -33.94755 151.14698 1103 ft 167 kts 255°
2026-05-07 16:49 -33.95223 151.13599 1894 ft 166 kts 225°
2026-05-07 16:49 -33.96174 151.13055 2427 ft 181 kts 191°
2026-05-07 16:49 -33.97388 151.13391 2900 ft 207 kts 156°
2026-05-07 16:50 -33.98384 151.14666 3381 ft 235 kts 123°
2026-05-07 16:50 -33.98922 151.16487 3887 ft 253 kts 113°
2026-05-07 16:50 -33.99401 151.18445 4452 ft 264 kts 112°
2026-05-07 16:50 -33.99883 151.20488 5126 ft 272 kts 112°
2026-05-07 16:51 -34.00374 151.22579 5943 ft 274 kts 112°
2026-05-07 16:51 -34.00873 151.24691 6757 ft 278 kts 112°
2026-05-07 16:51 -34.01387 151.26853 7509 ft 282 kts 112°
2026-05-07 16:51 -34.01906 151.29027 8264 ft 287 kts 113°
2026-05-07 16:52 -34.02437 151.31248 9048 ft 292 kts 113°
2026-05-07 16:52 -34.02980 151.33510 9833 ft 297 kts 113°
2026-05-07 16:52 -34.03530 151.35790 10525 ft 305 kts 114°
2026-05-07 16:52 -34.04120 151.38219 11035 ft 320 kts 113°
2026-05-07 16:53 -34.04732 151.40739 11486 ft 335 kts 113°
2026-05-07 16:53 -34.05372 151.43386 11984 ft 348 kts 112°
2026-05-07 16:53 -34.06017 151.46080 12651 ft 354 kts 112°
2026-05-07 16:53 -34.06676 151.48847 13399 ft 358 kts 112°
2026-05-07 16:54 -34.07336 151.51622 14101 ft 363 kts 112°
2026-05-07 16:54 -34.08007 151.54439 14732 ft 368 kts 112°
2026-05-07 16:54 -34.08695 151.57330 15358 ft 373 kts 112°
2026-05-07 16:54 -34.09380 151.60209 15983 ft 378 kts 112°
2026-05-07 16:55 -34.10084 151.63168 16649 ft 383 kts 112°
2026-05-07 16:55 -34.10784 151.66113 17273 ft 388 kts 112°
2026-05-07 16:55 -34.11503 151.69142 17881 ft 393 kts 112°
2026-05-07 16:55 -34.12229 151.72202 18488 ft 398 kts 112°
2026-05-07 16:56 -34.12963 151.75294 19005 ft 403 kts 112°
2026-05-07 16:56 -34.13705 151.78430 19537 ft 407 kts 112°
2026-05-07 16:56 -34.15219 151.84840 20601 ft 416 kts 112°
2026-05-07 16:57 -34.15980 151.88065 21124 ft 421 kts 112°
2026-05-07 16:57 -34.16743 151.91305 21619 ft 425 kts 112°
2026-05-07 16:57 -34.17526 151.94637 22161 ft 430 kts 112°
2026-05-07 16:57 -34.18304 151.97950 22668 ft 435 kts 112°
2026-05-07 16:58 -34.19099 152.01330 22999 ft 446 kts 112°
2026-05-07 16:58 -34.19982 152.04733 23277 ft 457 kts 115°
2026-05-07 16:58 -34.20987 152.08234 23558 ft 469 kts 116°
2026-05-07 16:58 -34.21882 152.11289 23872 ft 476 kts 116°
2026-05-07 16:59 -34.22906 152.14782 24332 ft 480 kts 115°
2026-05-07 16:59 -34.23247 152.15947 24501 ft 481 kts 115°
2026-05-07 16:59 -34.24088 152.18828 24898 ft 484 kts 115°
2026-05-07 16:59 -34.25145 152.22456 25389 ft 489 kts 115°
2026-05-07 17:00 -34.26214 152.26132 25867 ft 493 kts 115°
2026-05-07 17:00 -34.27275 152.29794 26350 ft 497 kts 115°
2026-05-07 17:00 -34.28342 152.33479 26810 ft 501 kts 115°
2026-05-07 17:00 -34.29437 152.37267 27262 ft 506 kts 115°
2026-05-07 17:01 -34.30526 152.41033 27598 ft 513 kts 115°
2026-05-07 17:01 -34.31640 152.44894 27973 ft 519 kts 115°
2026-05-07 17:01 -34.32774 152.48833 28418 ft 523 kts 115°
2026-05-07 17:01 -34.33900 152.52756 28897 ft 527 kts 114°
2026-05-07 17:02 -34.35026 152.56683 29447 ft 528 kts 114°
2026-05-07 17:02 -34.36143 152.60589 30081 ft 527 kts 114°
2026-05-07 17:02 -34.37258 152.64489 30626 ft 527 kts 114°
2026-05-07 17:02 -34.38388 152.68438 31174 ft 526 kts 114°
2026-05-07 17:03 -34.39514 152.72373 31707 ft 526 kts 114°
2026-05-07 17:03 -34.40655 152.76370 32252 ft 525 kts 113°
2026-05-07 17:03 -34.41792 152.80356 32771 ft 525 kts 113°
2026-05-07 17:03 -34.42929 152.84355 33333 ft 525 kts 112°
2026-05-07 17:04 -34.44057 152.88332 33850 ft 524 kts 112°
2026-05-07 17:04 -34.45181 152.92296 34326 ft 523 kts 112°
2026-05-07 17:04 -34.46299 152.96255 34754 ft 523 kts 112°
2026-05-07 17:04 -34.47415 153.00211 35149 ft 524 kts 112°
2026-05-07 17:05 -34.48532 153.04173 35526 ft 524 kts 112°
2026-05-07 17:05 -34.49652 153.08150 35888 ft 525 kts 112°
2026-05-07 17:05 -34.50772 153.12131 36246 ft 525 kts 112°
2026-05-07 17:05 -34.51896 153.16131 36615 ft 526 kts 112°
2026-05-07 17:06 -34.53014 153.20118 36943 ft 526 kts 112°
2026-05-07 17:06 -34.54141 153.24136 37269 ft 527 kts 112°
2026-05-07 17:06 -34.55277 153.28195 37563 ft 528 kts 112°
2026-05-07 17:06 -34.56389 153.32170 37798 ft 530 kts 112°
2026-05-07 17:07 -34.57517 153.36212 38036 ft 532 kts 112°
2026-05-07 17:07 -34.58656 153.40299 38266 ft 534 kts 112°
2026-05-07 17:07 -34.59788 153.44367 38509 ft 536 kts 112°
2026-05-07 17:07 -34.60923 153.48455 38699 ft 538 kts 112°
2026-05-07 17:08 -34.62056 153.52539 38843 ft 540 kts 111°
2026-05-07 17:08 -34.63201 153.56671 38976 ft 541 kts 111°
2026-05-07 17:08 -34.65483 153.64927 38992 ft 542 kts 111°
2026-05-07 17:09 -34.67755 153.73175 38996 ft 542 kts 111°
2026-05-07 17:09 -34.69941 153.81135 38990 ft 543 kts 111°
2026-05-07 17:10 -34.72177 153.89298 38986 ft 543 kts 111°
2026-05-07 17:10 -34.74414 153.97488 38985 ft 543 kts 111°
2026-05-07 17:11 -34.76682 154.05814 39000 ft 543 kts 111°
2026-05-07 17:11 -34.78887 154.13940 38979 ft 543 kts 111°
2026-05-07 17:12 -34.81092 154.22086 38972 ft 543 kts 111°
2026-05-07 17:12 -34.83258 154.30108 38967 ft 543 kts 111°
2026-05-07 17:13 -34.85476 154.38351 38968 ft 544 kts 111°
2026-05-07 17:13 -34.87720 154.46718 38956 ft 545 kts 111°
2026-05-07 17:14 -34.89934 154.54997 38950 ft 545 kts 111°
2026-05-07 17:14 -34.92148 154.63300 38946 ft 545 kts 111°
2026-05-07 17:15 -34.94376 154.71684 38958 ft 546 kts 111°
2026-05-07 17:15 -34.96585 154.80020 38946 ft 546 kts 111°
2026-05-07 17:16 -34.98785 154.88340 38924 ft 546 kts 111°
2026-05-07 17:16 -35.00984 154.96694 38936 ft 546 kts 111°
2026-05-07 17:17 -35.03134 155.04885 38923 ft 544 kts 110°
2026-05-07 17:17 -35.05288 155.13134 38920 ft 542 kts 110°
2026-05-07 17:18 -35.07474 155.21524 38926 ft 542 kts 110°
2026-05-07 17:18 -35.09627 155.29809 38909 ft 541 kts 110°
2026-05-07 17:19 -35.11769 155.38079 38901 ft 541 kts 110°
2026-05-07 17:19 -35.13908 155.46362 38901 ft 541 kts 110°
2026-05-07 17:20 -35.16063 155.54731 38898 ft 541 kts 110°
2026-05-07 17:20 -35.18196 155.63046 38905 ft 541 kts 110°
2026-05-07 17:21 -35.20335 155.71406 38892 ft 542 kts 110°
2026-05-07 17:21 -35.22479 155.79818 38884 ft 542 kts 110°
2026-05-07 17:22 -35.24595 155.88143 38878 ft 542 kts 110°
2026-05-07 17:22 -35.26699 155.96451 38879 ft 542 kts 110°
2026-05-07 17:23 -35.28804 156.04787 38872 ft 542 kts 110°
2026-05-07 17:23 -35.30550 156.11720 38874 ft 542 kts 110°
2026-05-07 17:24 -35.32641 156.20049 38867 ft 542 kts 110°
2026-05-07 17:24 -35.34750 156.28471 38871 ft 542 kts 110°
2026-05-07 17:25 -35.36829 156.36809 38863 ft 541 kts 109°
2026-05-07 17:25 -35.38906 156.45171 38849 ft 541 kts 109°
2026-05-07 17:26 -35.40978 156.53533 38839 ft 541 kts 109°
2026-05-07 17:26 -35.43046 156.61911 38842 ft 541 kts 109°
2026-05-07 17:27 -35.45145 156.70442 38835 ft 541 kts 109°
2026-05-07 17:27 -35.47197 156.78806 38827 ft 541 kts 109°
2026-05-07 17:28 -35.49254 156.87220 38823 ft 541 kts 109°
2026-05-07 17:28 -35.51302 156.95622 38818 ft 541 kts 109°
2026-05-07 17:29 -35.53332 157.03983 38812 ft 540 kts 109°
2026-05-07 17:29 -35.55361 157.12367 38810 ft 540 kts 109°
2026-05-07 17:30 -35.57360 157.20656 38800 ft 540 kts 109°
2026-05-07 17:30 -35.59373 157.29020 38795 ft 539 kts 109°
2026-05-07 17:31 -35.61406 157.37509 38789 ft 538 kts 109°
2026-05-07 17:31 -35.63394 157.45840 38780 ft 538 kts 109°
2026-05-07 17:32 -35.65389 157.54225 38780 ft 538 kts 108°
2026-05-07 17:32 -35.67354 157.62505 38774 ft 538 kts 108°
2026-05-07 17:33 -35.69311 157.70786 38763 ft 537 kts 108°
2026-05-07 17:33 -35.71285 157.79166 38765 ft 537 kts 108°
2026-05-07 17:34 -35.73270 157.87616 38764 ft 537 kts 108°
2026-05-07 17:34 -35.75241 157.96022 38748 ft 536 kts 108°
2026-05-07 17:35 -35.77170 158.04310 38748 ft 536 kts 108°
2026-05-07 17:35 -35.78890 158.12731 38739 ft 537 kts 104°
2026-05-07 17:36 -35.80364 158.21316 38719 ft 537 kts 103°
2026-05-07 17:36 -35.81807 158.29827 38723 ft 535 kts 103°
2026-05-07 17:37 -35.83250 158.38354 38723 ft 535 kts 103°
2026-05-07 17:37 -35.84698 158.46904 38712 ft 535 kts 103°
2026-05-07 17:38 -35.86113 158.55270 38713 ft 535 kts 103°
2026-05-07 17:38 -35.87533 158.63706 38699 ft 535 kts 102°
2026-05-07 17:39 -35.88951 158.72167 38704 ft 535 kts 102°
2026-05-07 17:39 -35.90361 158.80617 38701 ft 535 kts 102°
2026-05-07 17:40 -35.91780 158.89146 38694 ft 535 kts 102°
2026-05-07 17:40 -35.93195 158.97689 38690 ft 534 kts 102°
2026-05-07 17:41 -35.94616 159.06342 38687 ft 534 kts 102°
2026-05-07 17:41 -35.96002 159.14813 38678 ft 534 kts 102°
2026-05-07 17:42 -35.97410 159.23426 38678 ft 533 kts 101°
2026-05-07 17:42 -35.98800 159.31982 38678 ft 532 kts 101°
2026-05-07 17:43 -36.00179 159.40540 38667 ft 532 kts 101°
2026-05-07 17:43 -36.01554 159.49109 38665 ft 532 kts 101°
2026-05-07 17:44 -36.02933 159.57695 38660 ft 531 kts 101°
2026-05-07 17:44 -36.04303 159.66303 38659 ft 531 kts 100°
2026-05-07 17:45 -36.05657 159.74872 38659 ft 531 kts 100°
2026-05-07 17:45 -36.07012 159.83478 38653 ft 531 kts 100°
2026-05-07 17:46 -36.08355 159.92008 38655 ft 531 kts 99°
2026-05-07 17:46 -36.09691 160.00569 38654 ft 531 kts 99°
2026-05-07 17:47 -36.11009 160.09069 38648 ft 530 kts 99°
2026-05-07 17:47 -36.12331 160.17629 38648 ft 530 kts 99°
2026-05-07 17:48 -36.13657 160.26215 38649 ft 531 kts 99°
2026-05-07 17:48 -36.14970 160.34799 38646 ft 531 kts 99°
2026-05-07 17:49 -36.16298 160.43536 38646 ft 531 kts 99°
2026-05-07 17:49 -36.17617 160.52248 38643 ft 531 kts 99°
2026-05-07 17:50 -36.18938 160.60972 38634 ft 532 kts 98°
2026-05-07 17:50 -36.20253 160.69757 38639 ft 532 kts 98°
2026-05-07 17:51 -36.21554 160.78493 38636 ft 532 kts 98°
2026-05-07 17:51 -36.22851 160.87243 38636 ft 532 kts 98°
2026-05-07 17:52 -36.24142 160.95943 38633 ft 533 kts 97°
2026-05-07 17:52 -36.25392 161.04473 38638 ft 533 kts 97°
2026-05-07 17:53 -36.26673 161.13258 38639 ft 533 kts 97°
2026-05-07 17:53 -36.27947 161.22032 38639 ft 533 kts 97°
2026-05-07 17:54 -36.29207 161.30724 38637 ft 533 kts 97°
2026-05-07 17:54 -36.30451 161.39383 38640 ft 533 kts 97°
2026-05-07 17:55 -36.31726 161.48314 38643 ft 533 kts 97°
2026-05-07 17:55 -36.32994 161.57228 38630 ft 533 kts 97°
2026-05-07 17:56 -36.34264 161.66166 38631 ft 533 kts 96°
2026-05-07 17:56 -36.35525 161.75153 38635 ft 533 kts 96°
2026-05-07 17:57 -36.36564 161.82598 38636 ft 534 kts 96°
2026-05-07 17:57 -36.38013 161.93021 38634 ft 534 kts 96°
2026-05-07 17:58 -36.39259 162.02027 38628 ft 533 kts 96°
2026-05-07 17:58 -36.40484 162.10942 38628 ft 533 kts 96°
2026-05-07 17:59 -36.41707 162.19888 38625 ft 533 kts 96°
2026-05-07 17:59 -36.42927 162.28844 38615 ft 533 kts 95°
2026-05-07 18:00 -36.44141 162.37814 38624 ft 534 kts 95°
2026-05-07 18:00 -36.45348 162.46825 38625 ft 534 kts 95°
2026-05-07 18:01 -36.46548 162.55818 38621 ft 534 kts 95°
2026-05-07 18:01 -36.47740 162.64776 38603 ft 534 kts 95°
2026-05-07 18:02 -36.49521 162.78298 38613 ft 534 kts 94°
2026-05-07 18:03 -36.50694 162.87264 38618 ft 534 kts 94°
2026-05-07 18:03 -36.51867 162.96283 38593 ft 533 kts 94°
2026-05-07 18:04 -36.53031 163.05285 38611 ft 532 kts 94°
2026-05-07 18:04 -36.54172 163.14225 38611 ft 532 kts 94°
2026-05-07 18:05 -36.55316 163.23234 38614 ft 532 kts 94°
2026-05-07 18:05 -36.56454 163.32210 38582 ft 532 kts 93°
2026-05-07 18:06 -36.57576 163.41055 38610 ft 531 kts 92°
2026-05-07 18:06 -36.58688 163.50004 38614 ft 531 kts 92°
2026-05-07 18:07 -36.59794 163.58940 38619 ft 531 kts 92°
2026-05-07 18:07 -36.60899 163.67893 38601 ft 531 kts 92°
2026-05-07 18:08 -36.62012 163.76945 38613 ft 531 kts 92°
2026-05-07 18:08 -36.63102 163.85912 38616 ft 531 kts 92°
2026-05-07 18:09 -36.64190 163.94913 38625 ft 531 kts 92°
2026-05-07 18:09 -36.65260 164.03785 38615 ft 531 kts 91°
2026-05-07 18:10 -36.66322 164.12667 38622 ft 532 kts 91°
2026-05-07 18:10 -36.67381 164.21606 38628 ft 532 kts 91°
2026-05-07 18:11 -36.68263 164.29078 38632 ft 532 kts 91°
2026-05-07 18:11 -36.69310 164.38008 38600 ft 532 kts 91°
2026-05-07 18:12 -36.70356 164.46987 38625 ft 533 kts 91°
2026-05-07 18:12 -36.71402 164.56017 38636 ft 533 kts 91°
2026-05-07 18:13 -36.72429 164.64953 38642 ft 533 kts 91°
2026-05-07 18:13 -36.73448 164.73875 38626 ft 533 kts 91°
2026-05-07 18:14 -36.74460 164.82799 38644 ft 534 kts 91°
2026-05-07 18:14 -36.75472 164.91775 38647 ft 533 kts 91°
2026-05-07 18:15 -36.76477 165.00763 38650 ft 533 kts 91°
2026-05-07 18:15 -36.77481 165.09806 38627 ft 533 kts 91°
2026-05-07 18:16 -36.78477 165.18864 38653 ft 536 kts 91°
2026-05-07 18:16 -36.79471 165.27933 38653 ft 536 kts 91°
2026-05-07 18:17 -36.80462 165.37018 38660 ft 536 kts 91°
2026-05-07 18:17 -36.81443 165.46105 38663 ft 536 kts 91°
2026-05-07 18:18 -36.82415 165.55186 38672 ft 536 kts 90°
2026-05-07 18:18 -36.83378 165.64239 38675 ft 536 kts 90°
2026-05-07 18:19 -36.84339 165.73340 38663 ft 536 kts 90°
2026-05-07 18:19 -36.85289 165.82438 38651 ft 537 kts 91°
2026-05-07 18:20 -36.86238 165.91599 38667 ft 539 kts 91°
2026-05-07 18:20 -36.87184 166.00734 38677 ft 539 kts 91°
2026-05-07 18:21 -36.88120 166.09853 38683 ft 539 kts 91°
2026-05-07 18:21 -36.89051 166.19039 38669 ft 539 kts 91°
2026-05-07 18:22 -36.89971 166.28165 38689 ft 539 kts 91°
2026-05-07 18:22 -36.90890 166.37331 38687 ft 539 kts 91°
2026-05-07 18:23 -36.91798 166.46476 38692 ft 539 kts 91°
2026-05-07 18:23 -36.92694 166.55614 38683 ft 538 kts 91°
2026-05-07 18:24 -36.93585 166.64737 38696 ft 538 kts 91°
2026-05-07 18:24 -36.94481 166.73952 38704 ft 538 kts 91°
2026-05-07 18:25 -36.95362 166.83119 38714 ft 537 kts 91°
2026-05-07 18:25 -36.96237 166.92332 38707 ft 537 kts 91°
2026-05-07 18:26 -36.97099 167.01444 38716 ft 537 kts 91°
2026-05-07 18:26 -36.97959 167.10604 38728 ft 537 kts 91°
2026-05-07 18:27 -36.98815 167.19813 38725 ft 536 kts 91°
2026-05-07 18:27 -36.99658 167.29007 38723 ft 537 kts 91°
2026-05-07 18:28 -37.00499 167.38215 38736 ft 537 kts 91°
2026-05-07 18:28 -37.01335 167.47421 38740 ft 537 kts 91°
2026-05-07 18:29 -37.02152 167.56513 38749 ft 537 kts 91°
2026-05-07 18:29 -37.02963 167.65663 38743 ft 537 kts 91°
2026-05-07 18:30 -37.03777 167.74883 38756 ft 536 kts 91°
2026-05-07 18:30 -37.04572 167.83957 38768 ft 536 kts 91°
2026-05-07 18:31 -37.05366 167.93130 38768 ft 536 kts 91°
2026-05-07 18:31 -37.06150 168.02304 38765 ft 535 kts 91°
2026-05-07 18:32 -37.06919 168.11336 38777 ft 534 kts 91°
2026-05-07 18:32 -37.07686 168.20411 38782 ft 534 kts 91°
2026-05-07 18:33 -37.08448 168.29537 38792 ft 534 kts 91°
2026-05-07 18:33 -37.09199 168.38659 38778 ft 534 kts 91°
2026-05-07 18:34 -37.09942 168.47723 38793 ft 534 kts 91°
2026-05-07 18:34 -37.10681 168.56800 38805 ft 534 kts 91°
2026-05-07 18:35 -37.11408 168.65845 38806 ft 534 kts 91°
2026-05-07 18:35 -37.12131 168.74965 38806 ft 533 kts 91°
2026-05-07 18:36 -37.12848 168.84071 38818 ft 532 kts 91°
2026-05-07 18:36 -37.13561 168.93180 38817 ft 532 kts 91°
2026-05-07 18:37 -37.14267 169.02324 38815 ft 532 kts 91°
2026-05-07 18:37 -37.14963 169.11428 38823 ft 532 kts 91°
2026-05-07 18:38 -37.15653 169.20535 38838 ft 532 kts 91°
2026-05-07 18:38 -37.16336 169.29647 38836 ft 532 kts 91°
2026-05-07 18:39 -37.17014 169.38808 38837 ft 532 kts 91°
2026-05-07 18:39 -37.17678 169.47903 38830 ft 531 kts 91°
2026-05-07 18:40 -37.18335 169.56947 38841 ft 530 kts 91°
2026-05-07 18:40 -37.18993 169.66090 38855 ft 530 kts 91°
2026-05-07 18:41 -37.19635 169.75115 38864 ft 530 kts 91°
2026-05-07 18:41 -37.20270 169.84192 38851 ft 529 kts 91°
2026-05-07 18:42 -37.20902 169.93277 38868 ft 528 kts 91°
2026-05-07 18:42 -37.21526 170.02342 38877 ft 528 kts 91°
2026-05-07 18:43 -37.22143 170.11414 38879 ft 528 kts 91°
2026-05-07 18:43 -37.22749 170.20446 38876 ft 528 kts 91°
2026-05-07 18:44 -37.23348 170.29477 38884 ft 527 kts 91°
2026-05-07 18:44 -37.23943 170.38520 38890 ft 527 kts 91°
2026-05-07 18:45 -37.24532 170.47572 38895 ft 527 kts 91°
2026-05-07 18:45 -37.25109 170.56565 38887 ft 527 kts 91°
2026-05-07 18:46 -37.25598 170.65588 38913 ft 524 kts 88°
2026-05-07 18:46 -37.25490 170.74523 38919 ft 522 kts 84°
2026-05-07 18:47 -37.25214 170.83440 38920 ft 522 kts 84°
2026-05-07 18:47 -37.24937 170.92427 38907 ft 522 kts 84°
2026-05-07 18:48 -37.24666 171.01361 38927 ft 521 kts 84°
2026-05-07 18:48 -37.24398 171.10283 38936 ft 521 kts 84°
2026-05-07 18:49 -37.24122 171.19235 38936 ft 521 kts 84°
2026-05-07 18:49 -37.23841 171.28149 38942 ft 521 kts 84°
2026-05-07 18:50 -37.23547 171.37162 38714 ft 517 kts 84°
2026-05-07 18:50 -37.23399 171.41634 37772 ft 524 kts 84°
2026-05-07 18:50 -37.23245 171.46176 36793 ft 532 kts 84°
2026-05-07 18:50 -37.23088 171.50796 36141 ft 532 kts 84°
2026-05-07 18:51 -37.22931 171.55418 35581 ft 530 kts 84°
2026-05-07 18:51 -37.22774 171.60002 35016 ft 529 kts 84°
2026-05-07 18:51 -37.22614 171.64600 34449 ft 528 kts 84°
2026-05-07 18:51 -37.22454 171.69160 33850 ft 527 kts 84°
2026-05-07 18:52 -37.22293 171.73718 33165 ft 526 kts 84°
2026-05-07 18:52 -37.22131 171.78259 32387 ft 528 kts 84°
2026-05-07 18:52 -37.21964 171.82857 31596 ft 530 kts 83°
2026-05-07 18:52 -37.21797 171.87431 30864 ft 532 kts 83°
2026-05-07 18:53 -37.21627 171.92013 30128 ft 533 kts 83°
2026-05-07 18:53 -37.21454 171.96625 29318 ft 534 kts 83°
2026-05-07 18:53 -37.21280 172.01199 28842 ft 527 kts 83°
2026-05-07 18:53 -37.21108 172.05697 28420 ft 519 kts 83°
2026-05-07 18:54 -37.20938 172.10120 28021 ft 511 kts 83°
2026-05-07 18:54 -37.20770 172.14457 27620 ft 505 kts 83°
2026-05-07 18:54 -37.20600 172.18763 27219 ft 499 kts 83°
2026-05-07 18:54 -37.20432 172.23001 26839 ft 493 kts 83°
2026-05-07 18:55 -37.20261 172.27251 26448 ft 487 kts 83°
2026-05-07 18:55 -37.20091 172.31450 26063 ft 482 kts 83°
2026-05-07 18:55 -37.19922 172.35587 25658 ft 478 kts 82°
2026-05-07 18:55 -37.19751 172.39705 25241 ft 474 kts 82°
2026-05-07 18:56 -37.19580 172.43782 24837 ft 470 kts 83°
2026-05-07 18:56 -37.19407 172.47848 24426 ft 466 kts 83°
2026-05-07 18:56 -37.19237 172.51852 24023 ft 463 kts 83°
2026-05-07 18:56 -37.19068 172.55831 23634 ft 460 kts 83°
2026-05-07 18:57 -37.18899 172.59792 23188 ft 456 kts 83°
2026-05-07 18:57 -37.18731 172.63686 22788 ft 451 kts 83°
2026-05-07 18:57 -37.18563 172.67556 22412 ft 446 kts 83°
2026-05-07 18:57 -37.18397 172.71362 22049 ft 441 kts 83°
2026-05-07 18:58 -37.18231 172.75118 21685 ft 436 kts 83°
2026-05-07 18:58 -37.18065 172.78839 21327 ft 432 kts 83°
2026-05-07 18:58 -37.17901 172.82511 20970 ft 427 kts 83°
2026-05-07 18:58 -37.17735 172.86175 20620 ft 423 kts 83°
2026-05-07 18:59 -37.17570 172.89791 20261 ft 420 kts 83°
2026-05-07 18:59 -37.17405 172.93396 19904 ft 416 kts 83°
2026-05-07 18:59 -37.17240 172.96973 19554 ft 412 kts 83°
2026-05-07 18:59 -37.17077 173.00493 19208 ft 408 kts 83°
2026-05-07 19:00 -37.16913 173.04005 18865 ft 405 kts 83°
2026-05-07 19:00 -37.16750 173.07488 18516 ft 402 kts 83°
2026-05-07 19:00 -37.16640 173.09834 18268 ft 400 kts 82°
2026-05-07 19:00 -37.16478 173.13242 17858 ft 397 kts 82°
2026-05-07 19:01 -37.16314 173.16678 17461 ft 394 kts 82°
2026-05-07 19:01 -37.16153 173.20038 17086 ft 391 kts 82°
2026-05-07 19:01 -37.15991 173.23392 16701 ft 388 kts 82°
2026-05-07 19:01 -37.15830 173.26708 16315 ft 386 kts 82°
2026-05-07 19:02 -37.15668 173.30025 15931 ft 384 kts 82°
2026-05-07 19:02 -37.15507 173.33307 15551 ft 382 kts 82°
2026-05-07 19:02 -37.15345 173.36573 15168 ft 380 kts 82°
2026-05-07 19:02 -37.15185 173.39785 14779 ft 378 kts 82°
2026-05-07 19:03 -37.15024 173.42997 14399 ft 376 kts 82°
2026-05-07 19:03 -37.14857 173.46216 14017 ft 374 kts 82°
2026-05-07 19:03 -37.14672 173.49403 13608 ft 373 kts 82°
2026-05-07 19:03 -37.14480 173.52587 13200 ft 370 kts 82°
2026-05-07 19:04 -37.14287 173.55771 12804 ft 367 kts 82°
2026-05-07 19:04 -37.14098 173.58919 12437 ft 364 kts 82°
2026-05-07 19:04 -37.13911 173.62040 12062 ft 360 kts 82°
2026-05-07 19:04 -37.13732 173.65015 11713 ft 357 kts 82°
2026-05-07 19:05 -37.13555 173.67973 11605 ft 344 kts 81°
2026-05-07 19:05 -37.13382 173.70858 11522 ft 334 kts 81°
2026-05-07 19:05 -37.13207 173.73714 11205 ft 333 kts 81°
2026-05-07 19:05 -37.13033 173.76560 10848 ft 331 kts 81°
2026-05-07 19:06 -37.12860 173.79359 10508 ft 329 kts 81°
2026-05-07 19:06 -37.12519 173.84930 10137 ft 311 kts 81°
2026-05-07 19:06 -37.12356 173.87576 10068 ft 299 kts 81°
2026-05-07 19:07 -37.12199 173.90145 9975 ft 288 kts 81°
2026-05-07 19:07 -37.12040 173.92647 9664 ft 288 kts 81°
2026-05-07 19:07 -37.11878 173.95144 9363 ft 286 kts 81°
2026-05-07 19:07 -37.11722 173.97608 9061 ft 283 kts 80°
2026-05-07 19:08 -37.11567 174.00051 8787 ft 281 kts 81°
2026-05-07 19:08 -37.11412 174.02485 8502 ft 278 kts 81°
2026-05-07 19:08 -37.11259 174.04891 8226 ft 276 kts 80°
2026-05-07 19:08 -37.11104 174.07288 7970 ft 274 kts 80°
2026-05-07 19:09 -37.10950 174.09659 7684 ft 272 kts 81°
2026-05-07 19:09 -37.10799 174.12011 7495 ft 266 kts 80°
2026-05-07 19:09 -37.10655 174.14301 7326 ft 262 kts 80°
2026-05-07 19:09 -37.10507 174.16572 7058 ft 261 kts 81°
2026-05-07 19:10 -37.10361 174.18832 6796 ft 259 kts 80°
2026-05-07 19:10 -37.10218 174.21081 6532 ft 258 kts 80°
2026-05-07 19:10 -37.10071 174.23318 6270 ft 256 kts 80°
2026-05-07 19:10 -37.09925 174.25538 5989 ft 255 kts 80°
2026-05-07 19:11 -37.09782 174.27752 5702 ft 254 kts 80°
2026-05-07 19:11 -37.09635 174.29954 5410 ft 252 kts 81°
2026-05-07 19:11 -37.09490 174.32138 5157 ft 250 kts 81°
2026-05-07 19:11 -37.09347 174.34309 4890 ft 249 kts 81°
2026-05-07 19:12 -37.09206 174.36438 4615 ft 247 kts 80°
2026-05-07 19:12 -37.09064 174.38609 4354 ft 246 kts 79°
2026-05-07 19:12 -37.08923 174.40710 4090 ft 244 kts 79°
2026-05-07 19:12 -37.08780 174.42861 3822 ft 243 kts 79°
2026-05-07 19:13 -37.08639 174.44939 3573 ft 242 kts 79°
2026-05-07 19:13 -37.08493 174.47068 3307 ft 241 kts 79°
2026-05-07 19:13 -37.08353 174.49153 3119 ft 236 kts 78°
2026-05-07 19:13 -37.08221 174.51148 3068 ft 224 kts 78°
2026-05-07 19:14 -37.08083 174.53024 3005 ft 214 kts 74°
2026-05-07 19:14 -37.07759 174.54830 3007 ft 211 kts 66°
2026-05-07 19:14 -37.07313 174.56568 3050 ft 205 kts 64°
2026-05-07 19:14 -37.06866 174.58185 3023 ft 187 kts 64°
2026-05-07 19:15 -37.06451 174.59667 2883 ft 176 kts 63°
2026-05-07 19:15 -37.06047 174.61103 2654 ft 172 kts 63°
2026-05-07 19:15 -37.05653 174.62511 2423 ft 171 kts 63°
2026-05-07 19:15 -37.05264 174.63910 2205 ft 169 kts 63°
2026-05-07 19:16 -37.04880 174.65296 1998 ft 167 kts 63°
2026-05-07 19:16 -37.04502 174.66669 1788 ft 165 kts 63°
2026-05-07 19:16 -37.04126 174.68028 1537 ft 166 kts 64°
2026-05-07 19:16 -37.03748 174.69396 1316 ft 166 kts 66°
2026-05-07 19:17 -37.03374 174.70756 1081 ft 164 kts 66°
2026-05-07 19:17 -37.03005 174.72100 859 ft 163 kts 67°
2026-05-07 19:17 -37.02629 174.73460 660 ft 166 kts 68°
2026-05-07 19:17 -37.02256 174.74819 429 ft 164 kts 68°
2026-05-07 19:18 -37.01893 174.76133 212 ft 155 kts 68°
2026-05-07 19:18 -37.01560 174.77346 41 ft 139 kts 68°
2026-05-07 19:18 -37.01294 174.78296 30 ft 85 kts 71°
2026-05-07 19:18 -37.01148 174.78810 32 ft 53 kts 65°
2026-05-07 19:19 -37.01001 174.79034 29 ft 0 kts 41°
2026-05-07 19:22 -37.00999 174.79036 29 ft 0 kts 40°